Location: Kalwaria Zebrzydowska
(49.8686°N, 19.6647°E)
Time: 07:37:30
(UTC+01:00)

ISS - Pass Details

Date: 28 January 2019
Orbit: 403 x 411 km, 51.6° (Epoch: 22 February)

Event Time Altitude Azimuth Distance (km) Brightness Sun altitude
Rises 19:07:01 0° 271° (W) 2,337 1.4 -25.4°
Reaches altitude 10° 19:09:07 10° 274° (W) 1,478 0.0 -25.7°
Enters shadow 19:10:48 27° 283° (WNW) 831 -1.6 -26.0°
